Simultaneous Nadir Overpasses (SNOs) Predictions

Prediction of SNOs between GOES-16 and NOAA-20 Satellite Orbit:

Table of predicted SNOs for the next 14.0 days since TLE Epoch: 11/4/2022
Index Date Time (GOES-16) GOES-16 Lat,Lon NOAA-20 Lat,Lon Distance(km) Time Diff (sec)
1 11/05/2022 18:10:28 -0.03, -75.19 0.86, -71.22 453.43 80
2 11/07/2022 06:29:35 0.02, -75.20 0.30, -76.49 146.14 80
3 11/08/2022 06:13:30 0.03, -75.21 -0.70, -71.95 371.39 80
4 11/09/2022 18:32:46 -0.02, -75.22 -0.45, -77.26 231.10 80
5 11/10/2022 18:16:41 -0.02, -75.23 0.55, -72.72 286.73 80
6 11/12/2022 06:38:28 0.02, -75.25 0.61, -77.99 311.99 80
7 11/13/2022 06:17:03 0.02, -75.26 -0.39, -73.45 205.97 80
8 11/14/2022 18:38:58 -0.01, -75.28 -0.80, -78.75 395.78 80
9 11/15/2022 18:22:53 -0.01, -75.30 0.26, -74.23 122.72 80
10 11/17/2022 06:44:40 0.01, -75.33 0.96, -79.49 474.63 80
11 11/18/2022 06:23:15 0.01, -75.35 -0.10, -74.96 44.25 80
